Weather History for KFMY - March, 2013

Change the Weather History Date:

Tuesday, March 5, 2013

  Actual Average Record
Temperature  
Mean Temperature 60 °F 69 °F  
Max Temperature 75 °F 79 °F 90 °F (1961)
Min Temperature 45 °F 58 °F 36 °F (1916)
Degree Days  
Heating Degree Days 5 1  
Month to date heating degree days 39 5  
Since 1 July heating degree days 155 265  
Cooling Degree Days 0 5  
Month to date cooling degree days 0 25  
Year to date cooling degree days 311 210  
Growing Degree Days 10 (Base 50)    
Moisture  
Dew Point 51 °F    
Average Humidity 69    
Maximum Humidity 90    
Minimum Humidity 46    
Precipitation  
Precipitation 0.00 in 0.09 in 1.20 in (1975)
Month to date precipitation 0.11 0.42  
Year to date precipitation 2.59 4.51  
Sea Level Pressure  
Sea Level Pressure 30.14 in    
Wind  
Wind Speed 5 mph (SSW)    
Max Wind Speed 15 mph    
Max Gust Speed 21 mph    
Visibility 10 miles    
Events      
T = Trace of Precipitation, MM = Missing Value Source: NWS Daily Summary

Daily Weather History Graph

Daily Weather History Graph

Search for Another Location

Airport or City:

Trip Planner

Search our weather history database for the weather conditions in past years. The results will help you decide how hot, cold, wet, or windy it might be!

Date:

Astronomy

Mar. 05, 2013 Rise Set
Actual Time 6:46 AM EST 6:31 PM EST
Civil Twilight 6:23 AM EST 6:54 PM EST
Nautical Twilight 5:56 AM EST 7:21 PM EST
Astronomical Twilight 5:30 AM EST 7:48 PM EST
Moon 1:33 AM EST 12:32 PM EST
Length of Visible Light 12h 30m
Length of Day
11h 44m
Last Quarter, 41% of the Moon is Illuminated
Mar 5
Last Quarter
Mar 11
New
Mar 19
First Quarter
Mar 27
Full
Apr 3
Last Quarter

Hourly Weather History & Observations

Time (EST) Temp. Windchill Dew Point Humidity Pressure Visibility Wind Dir Wind Speed Gust Speed Precip Events Conditions
12:53 AM 48.0 °F - 45.0 °F 89% 30.18 in 10.0 mi Calm Calm - N/A   Clear
2:53 AM 46.9 °F - 43.0 °F 86% 30.15 in 10.0 mi Calm Calm - N/A   Clear
3:53 AM 46.9 °F - 42.1 °F 83% 30.15 in 10.0 mi Calm Calm - N/A   Clear
4:53 AM 46.0 °F 43.9 °F 41.0 °F 83% 30.14 in 10.0 mi SE 4.6 mph - N/A   Clear
5:53 AM 46.0 °F - 41.0 °F 83% 30.17 in 10.0 mi Calm Calm - N/A   Clear
6:53 AM 46.0 °F - 41.0 °F 83% 30.17 in 10.0 mi Calm Calm - N/A   Clear
8:53 AM 60.1 °F - 48.0 °F 64% 30.19 in 10.0 mi SSE 3.5 mph - N/A   Clear
9:53 AM 66.9 °F - 48.0 °F 51% 30.18 in 10.0 mi South 8.1 mph - N/A   Clear
10:53 AM 71.1 °F - 51.1 °F 49% 30.19 in 10.0 mi South 10.4 mph 16.1 mph N/A   Clear
11:53 AM 72.0 °F - 52.0 °F 49% 30.18 in 10.0 mi South 9.2 mph - N/A   Clear
12:53 PM 73.9 °F - 52.0 °F 46% 30.15 in 10.0 mi SW 10.4 mph 19.6 mph N/A   Clear
1:53 PM 73.0 °F - 51.1 °F 46% 30.12 in 10.0 mi SSW 10.4 mph 16.1 mph N/A   Clear
2:53 PM 73.9 °F - 53.1 °F 48% 30.11 in 10.0 mi SSW 9.2 mph - N/A   Clear
3:53 PM 73.0 °F - 54.0 °F 51% 30.12 in 10.0 mi SW 9.2 mph - N/A   Clear
4:53 PM 72.0 °F - 54.0 °F 53% 30.12 in 10.0 mi WSW 9.2 mph - N/A   Clear
5:53 PM 69.1 °F - 55.9 °F 63% 30.14 in 10.0 mi West 9.2 mph - N/A   Clear
6:53 PM 64.9 °F - 55.9 °F 73% 30.13 in 10.0 mi WSW 5.8 mph - N/A   Clear
7:53 PM 64.0 °F - 57.0 °F 78% 30.12 in 10.0 mi SSW 3.5 mph - N/A   Clear
8:53 PM 62.1 °F - 57.0 °F 84% 30.12 in 10.0 mi Calm Calm - N/A   Clear
9:53 PM 61.0 °F - 57.0 °F 87% 30.13 in 10.0 mi Calm Calm - N/A   Clear
10:53 PM 61.0 °F - 57.0 °F 87% 30.12 in 10.0 mi SSW 3.5 mph - N/A   Clear
11:53 PM 61.0 °F - 57.9 °F 90% 30.09 in 10.0 mi SSW 5.8 mph - N/A   Clear